Regional Weather Roundup
Issued by NWS San Angelo, TX

Home | Current Version | Previous Version | Text Only | Print | Product List | Glossary On
Versions: 1 2 3 4 5 6 7 8 9 10 11 12 13 14 15 16 17 18 19 20 21 22 23 24 25 26 27 28 29 30 31 32 33 34 35 36 37 38 39 40 41 42 43 44 45 46 47 48 49 50
000
ASUS44 KSJT 312110
RWRSJT
WEST CENTRAL TEXAS REGIONAL WEATHER ROUNDUP
NATIONAL WEATHER SERVICE SAN ANGELO TX
400 PM CDT MON AUG 31 2015

NOTE: "FAIR" INDICATES FEW OR NO CLOUDS BELOW 12,000 FEET WITH NO
SIGNIFICANT WEATHER AND/OR OBSTRUCTIONS TO VISIBILITY.

TXZ049-054-064>066-071>073-076>078-098-099-113-114-127-128-139-140-
154-155-168>170-312200
...LOCATIONS ACROSS WEST CENTRAL TEXAS...

CITY           SKY/WX    TMP DP  RH WIND       PRES   REMARKS
SAN ANGELO     FAIR      94  57  28 VRB6      29.97F
ABILENE        FAIR      94  59  31 SE12G20   29.98F
DYESS AFB      FAIR      93  60  32 S12G24    29.96F
JUNCTION       FAIR      91  60  35 VRB5      29.99F
SWEETWATER     FAIR      91  52  25 SE8       30.02F
BROWNWOOD      NOT AVBL
COLEMAN        MOCLDY    94  61  33 SE15G21   29.99F
SONORA         FAIR      91  57  31 S10       30.03F
OZONA          FAIR      91  54  27 S9G16     30.02F
BRADY          SUNNY     93  61  33 SE9       29.99F
$$

TEXAS PANHANDLE/OKLAHOMA PANHANDLE

CITY           SKY/WX    TMP DP  RH WIND       PRES   REMARKS
AMARILLO       FAIR      89  50  26 S18G29    30.03F
BORGER         FAIR      93  51  23 S18G28    29.97F
CANADIAN       FAIR      94  52  24 S18G25    29.93F
DALHART        LGT RAIN  95  51  22 S22       29.98F
DUMAS          FAIR      90  53  28 S17G28    29.99F
GUYMON         NOT AVBL
HEREFORD       FAIR      91  52  27 S20G25    30.03F
PAMPA          FAIR      92  49  23 S18G26    30.00F
PERRYTON         N/A     96  48  19 SW22G28   29.95F
$$

SOUTHERN PANHANDLE/SOUTH PLAINS/ROLLING PLAINS

CITY           SKY/WX    TMP DP  RH WIND       PRES   REMARKS
LUBBOCK        FAIR      91  49  23 S15G22    30.03F
SNYDER         FAIR      92  55  28 SW5       30.00F
CHILDRESS      FAIR      96  49  20 SW13G21   29.94F
SEMINOLE       FAIR      92  47  21 S8        30.04F
$$

PERMIAN BASIN

CITY           SKY/WX    TMP DP  RH WIND       PRES   REMARKS
MIDLAND        FAIR      92  53  26 SE12      30.00F
ODESSA         FAIR      92  50  23 S9        30.01F
WINK           FAIR      94  47  20 SE12      29.97F
$$

FAR WEST/SOUTHWEST MOUNTAINS/TRANS PECOS

CITY           SKY/WX    TMP DP  RH WIND       PRES   REMARKS
ALPINE         FAIR      91  39  15 NE9       30.14F
DRYDEN           N/A     96  58  27 SW13G23   29.95F
EL PASO        FAIR      95  41  15 S8        30.02F
FORT STOCKTON  FAIR      95  46  18 E10       29.99F
GUADALUPE PASS FAIR      91  48  22 S13       30.17F
MARFA          FAIR      90  39  17 NE14      30.13F
PECOS          FAIR      96  43  16 E3        29.96F
$$

DALLAS/FORT WORTH METROPLEX

CITY           SKY/WX    TMP DP  RH WIND       PRES   REMARKS
DFW AIRPORT    FAIR      94  60  32 S6        29.95F
FTW MEACHAM    FAIR      96  62  32 SE13      29.96F
DAL-EXECUTIVE  FAIR      93  61  34 SE10      29.96F
GRAND PRAIRIE  SUNNY     91  64  40 SE7       29.98F
ADDISON        MOSUNNY   93  59  31 E6G17     29.98F
MESQUITE       PTCLDY    91  61  35 SE7       29.98F
LANCASTER      FAIR      94  60  31 SE12      29.97F
$$

NORTH CENTRAL TEXAS

CITY           SKY/WX    TMP DP  RH WIND       PRES   REMARKS
SHRMAN/DENISON FAIR      95  64  35 SE14      29.98F
GAINESVILLE    FAIR      92  60  34 S10       29.99F
BRIDGEPORT     FAIR      93  65  38 SE10      29.98F
DENTON         FAIR      93  60  33 SE12G18   29.96F
WAXAHACHIE     FAIR      94  63  34 E9        29.98F
GRANBURY       FAIR      94  60  32 E9G17     29.97F
$$

WESTERN NORTH TEXAS

CITY           SKY/WX    TMP DP  RH WIND       PRES   REMARKS
WICHITA FALLS  FAIR      96  60  30 SE17      29.94F
VERNON         FAIR      97  42  14 S14G21    29.94F
BRECKENRIDGE   FAIR      94  55  26 S9G21     29.96F HAZE
COMANCHE       PTSUNNY   92  61  34 E9        29.99F
$$

CENTRAL AND SOUTH CENTRAL TEXAS

CITY           SKY/WX    TMP DP  RH WIND       PRES   REMARKS
AUSTIN/BERGSTM PTSUNNY   94  60  32 VRB5      29.94F
WACO           FAIR      93  63  36 SW7       29.96F
HILLSBORO      FAIR      93  60  32 SE7       29.97F
TEMPLE         FAIR      93  64  38 S15       29.97F
KILLEEN-GRAY   FAIR      93  58  30 SE12G17   29.97F
FORT HOOD      FAIR      93  61  34 S6        29.96F
GEORGETOWN     MOSUNNY   93  61  33 SE6       29.98F
LAGO VISTA     FAIR      93  58  30 SE7       30.00F
SAN MARCOS     NOT AVBL
NEW BRAUNFELS  PTSUNNY   98  61  29 SE9       29.94F
RANDOLPH AFB   FAIR      94  60  31 SE9       29.95F
SAN ANTONIO    FAIR      94  60  32 SE9       29.96F
STINSON        FAIR      97  62  31 E6        29.93F
PLEASANTON     NOT AVBL
LA GRANGE      FAIR      91  71  51 SE8       29.95F
GIDDINGS       FAIR      87  67  51 SE7G21    30.01S
$$

EAST TEXAS

CITY           SKY/WX    TMP DP  RH WIND       PRES   REMARKS
PARIS          FAIR      93  63  36 S13       29.99F
CLARKSVILLE    NOT AVBL
TYLER          FAIR      90  63  40 CALM      29.99F
LONGVIEW       FAIR      89  66  46 SE3       30.00F
PALESTINE      FAIR      92  65  40 S3        29.99F
NACOGDOCHES    FAIR      91  61  35 SE8       29.99F
$$

TEXAS HILL COUNTRY AND EDWARDS PLATEAU

CITY           SKY/WX    TMP DP  RH WIND       PRES   REMARKS
LLANO          FAIR      97  57  26 SE6G18    29.99F
HORSESHOE BAY  FAIR      92  60  33 S7        29.98F
KERRVILLE      FAIR      92  62  37 E9G17     30.00F
FREDERICKSBRG  FAIR      92  53  25 SE7       29.99F
ROCKSPRINGS    FAIR      90  57  33 SE7       30.05F
HONDO          FAIR      95  60  31 E8        29.97F
UVALDE         FAIR      93  62  36 SE9       29.95F
DEL RIO        FAIR      96  58  27 E7G20     29.91F
$$

SOUTHEAST TEXAS

CITY           SKY/WX    TMP DP  RH WIND       PRES   REMARKS
COLLEGE STN    FAIR      89  69  51 S13       29.97F
CALDWELL       FAIR      91  66  43 SE14      29.99F
CROCKETT       FAIR      91  63  38 SE8       30.00F
BRENHAM        FAIR      85  73  67 SE7       30.00F
HUNTSVILLE     FAIR      90  67  46 MISG      29.98F
CONROE         FAIR      85  69  58 E9        30.00F
HOUSTON BUSH   CLOUDY    87  72  60 E10       30.00F
HOUSTON HOBBY  PTSUNNY   82  72  71 SE6       30.00F
PERLAND        FAIR      82  72  71 SE7       30.01F
WHARTON        FAIR      84  69  60 E6        30.00S
$$

THE UPPER TEXAS COAST

CITY           SKY/WX    TMP DP  RH WIND       PRES   REMARKS
ORANGE         FAIR      82  69  63 CALM      30.02F
PORT ARTHUR    FAIR      84  72  67 N5        30.00F
GALVESTON      LGT RAIN  82  77  84 E7        30.01F
ANGLETON       FAIR      81  75  82 E7        30.01F
BAY CITY       FAIR      85  75  72 E12       30.01S
$$

TEXAS COASTAL BEND, RIO GRANDE PLAINS DEEP SOUTH TEXAS

CITY           SKY/WX    TMP DP  RH WIND       PRES   REMARKS
VICTORIA       FAIR      82  75  79 SE12      29.99F
BEEVILLE       FAIR      89  71  56 E17G23    29.97S
ROCKPORT       FAIR      85  71  63 SE8       29.94F
PORT ARANSAS   FAIR      85  76  72 SE12G17   29.97F
PORT LAVACA    FAIR      76  75  94 CALM      29.98F
CORPUS CHRISTI TSTM      81  73  78 S6        29.96F
KINGSVILLE NAS PTSUNNY   87  76  69 SE15      29.97R
COTULLA        PTSUNNY   99  61  28 SE10      29.91F
LAREDO         FAIR     100  63  29 VRB6      29.90F
BROWNSVILLE    TSTM      79  77  94 E14       29.94F
PORT ISABEL    LGT RAIN  81  80  97 E5        29.95F
HEBBRONVILLE   NOT AVBL
MCALLEN        FAIR      85  71  63 E26G35    29.92F
WESLACO        FAIR      79  71  75 SE13G23   29.95F
FALFURRIAS     CLOUDY    75  70  84 E22G33    30.00R
EDINBURG       FAIR      92  64  40 E22G28    29.92F
$$


USA.gov is the U.S. government's official web portal to all federal, state and local government web resources and services.